RH
30 32 31 24 26 30 36 42 42 38 26 36 55 71 70 69 75 74 78 83 72 75 82 85 56 49 54 68 73 80 90 98 83 81 93 91 94 97 99 85 74 71 47
32 34 40 27 25 24 30 35 32 40 51 60 59 56 58 55 53 56 57 73 74 70 92 100 96 93 79 58 93 88 99 99 95 96 98 96 95 97 88 85 80 58 43
34 39 41 36 30 36 44 44 38 38 44 50 51 46 49 33 26 26 34 44 52 68 67 77 89 96 88 90 94 87 97 98 98 96 85 68 73 65 53 44 37 28 27
49 52 48 43 38 40 46 44 40 49 58 49 41 37 35 33 31 29 28 25 25 31 53 67 62 73 86 96 82 91 95 91 85 79 73 71 75 58 30 30 26 26 29
50 56 62 51 55 58 56 57 57 52 56 50 53 49 43 39 36 30 30 25 24 23 22 48 74 92 85 88 100 100 100 99 97 94 87 84 84 81 50 38 35 31 25
69 60 72 63 60 64 68 68 66 60 57 51 50 52 52 38 31 29 31 30 29 28 30 51 77 94 98 98 98 99 100 96 98 92 84 64 64 58 53 46 40 35 30
58 64 62 75 66 61 69 63 70 74 76 64 62 68 64 44 37 26 16 31 41 49 62 71 84 94 97 99 100 99 93 88 98 93 95 83 88 95 100 100 85 37 40
61 67 70 73 77 72 78 62 74 68 63 72 79 81 78 72 49 44 38 31 37 48 60 59 53 53 61 74 72 82 77 57 73 99 76 100 100 88 97 100 58 43 54
68 72 84 89 98 86 67 65 78 68 61 87 84 85 81 78 65 58 58 47 36 53 55 40 52 49 53 47 55 69 63 45 82 37 46 42 42 91 63 42 55 63 84
86 82 81 76 76 76 72 87 89 88 77 89 66 75 94 95 78 57 60 70 62 34 32 35 33 24 23 23 22 26 33 38 42 47 100 99 81 56 80 76 66 89 87
87 97 93 97 97 94 91 85 92 96 85 70 78 92 86 67 69 76 85 83 74 60 53 56 47 43 45 46 46 49 50 47 47 94 100 100 98 70 71 96 97 100 100
78 97 100 100 98 95 97 93 100 100 96 100 91 99 98 98 96 83 81 98 99 92 89 91 75 58 51 53 60 85 99 83 100 99 94 90 92 96 99 100 100 100 100
91 100 100 100 100 96 94 100 100 92 93 96 100 96 97 98 100 99 98 98 99 97 97 93 78 81 85 95 100 100 100 96 97 100 100 100 100 100 100 100 100 100 100
75 100 100 100 100 100 100 100 100 100 100 98 97 99 99 97 82 89 100 100 99 100 96 93 94 100 100 100 100 98 99 100 100 99 100 100 100 100 100 100 100 100 100
85 92 100 100 100 98 98 96 98 98 95 99 100 95 98 100 86 90 99 96 97 99 99 100 98 100 100 99 100 100 98 100 100 100 100 100 100 100 100 100 100 100 100
62 81 85 98 99 96 85 92 98 99 98 100 100 100 98 91 100 99 100 100 99 100 100 100 100 100 100 100 100 100 100 100 100 100 100 99 96 97 99 100 100 93 67
77 74 69 62 100 100 92 99 99 96 100 100 100 100 100 100 100 99 99 97 100 100 100 100 100 100 100 99 99 100 98 95 99 100 97 97 100 98 90 79 55 30 18
100 97 96 99 97 87 96 96 97 100 99 99 100 100 100 99 100 100 100 100 100 100 100 100 100 100 100 100 100 100 99 96 87 84 87 86 79 62 34 18 13 11 10
99 100 100 96 99 100 99 99 100 99 100 98 100 100 100 100 100 100 100 100 100 100 100 100 100 100 100 97 89 87 91 88 82 73 55 28 15 11 11 10 9 7 6
100 100 100 100 100 98 100 98 99 100 100 100 100 100 100 100 100 100 100 100 100 100 97 90 87 83 82 86 86 82 70 43 22 13 12 12 11 9 7 6 6 6 6
99 100 100 100 100 100 100 100 100 100 100 100 100 100 100 100 100 100 100 99 99 99 100 98 88 86 84 68 47 21 12 12 12 11 9 7 6 5 6 6 6 7 9
100 100 100 100 100 100 100 100 98 100 97 95 97 99 100 99 100 100 100 99 98 95 91 81 68 48 25 14 12 12 12 10 7 6 6 6 6 7 8 10 10 10 11
100 100 98 97 99 100 94 82 81 85 96 99 99 99 99 100 99 97 95 91 81 62 36 19 14 13 13 12 10 8 7 6 7 7 7 8 10 11 12 13 12 10 9
96 97 88 84 85 83 81 80 83 83 88 89 90 92 95 96 87 67 41 22 15 14 14 13 12 9 8 7 7 7 7 8 8 10 12 12 14 14 13 12 11 11 10
89 91 94 94 98 94 93 94 96 96 96 94 86 61 29 16 15 15 14 14 12 10 8 7 8 8 8 8 8 8 9 11 13 14 15 16 16 14 14 13 16 17 18
94 98 99 100 98 93 86 76 60 38 21 16 16 16 15 14 12 10 8 8 8 9 9 9 9 9 9 9 10 12 14 16 18 21 18 19 22 22 22 31 45 51 54
Wind_Speed
18 17 16 16 16 15 14 14 15 16 18 18 19 20 23 24 25 25 26 29 33 36 40 42 43 44 47 48 48 51 54 54 56 58 54 44 35 41 42 49 49 51 53
22 20 20 19 19 17 17 17 18 19 20 21 23 24 24 25 26 29 29 29 31 34 34 40 42 46 48 50 50 48 47 51 48 37 38 43 42 43 48 51 52 55 56
26 25 23 22 21 21 22 24 25 25 25 27 27 26 25 26 27 28 29 30 32 37 37 37 39 43 49 46 47 44 47 51 48 48 46 50 47 49 52 58 59 60 62
30 28 28 27 25 26 29 29 28 29 29 29 28 27 27 30 31 31 32 33 36 37 36 39 41 39 41 41 43 46 49 50 49 46 49 51 54 55 58 60 62 63 65
38 35 32 33 33 32 32 32 33 33 29 28 30 32 33 36 38 38 39 40 38 38 38 40 41 41 46 47 45 47 50 48 48 49 52 54 57 59 62 64 67 68 69
41 38 36 37 38 36 36 35 35 37 35 35 37 39 39 36 36 36 40 41 41 41 42 42 43 44 48 43 45 45 50 54 53 55 56 58 61 62 66 68 69 71 71
44 43 41 42 42 41 40 41 40 40 40 40 40 40 40 40 37 38 41 45 46 45 43 43 43 45 45 49 48 51 55 56 57 59 60 67 63 65 70 72 74 73 73
45 46 47 47 48 46 45 43 42 44 44 44 43 43 44 43 45 44 44 45 46 45 44 45 45 48 49 51 51 55 58 59 58 63 60 56 62 73 73 79 79 76 75
46 48 47 50 50 51 48 46 46 47 44 46 45 45 44 47 48 46 48 49 48 48 48 49 51 53 54 56 57 58 63 60 62 68 63 66 73 76 81 78 77 78 80
47 50 53 55 54 54 48 48 52 49 46 46 47 44 46 50 49 50 49 50 52 53 54 54 55 57 59 61 62 63 63 63 62 62 71 73 72 78 80 80 81 82 83
50 53 55 57 59 55 53 54 52 49 50 51 51 51 51 54 53 53 52 54 56 57 59 60 61 62 61 62 64 66 65 62 62 69 74 80 84 82 81 81 84 87 88
52 52 52 56 55 54 57 57 52 56 63 58 58 59 61 60 58 52 54 57 57 59 63 63 63 63 66 68 71 68 67 69 66 75 76 78 80 81 83 86 89 91 95
56 55 55 54 56 58 58 57 60 61 60 65 63 67 64 58 71 65 55 61 60 57 61 61 62 64 69 69 67 68 68 78 82 78 77 78 83 87 89 90 93 96 96
59 58 59 60 58 63 61 61 61 62 65 68 66 68 74 61 60 59 57 65 66 62 62 63 63 61 67 63 68 76 76 76 78 79 82 86 86 90 93 93 93 96 98
58 59 65 64 64 64 68 66 67 66 67 69 72 75 72 67 66 65 68 69 76 73 64 63 62 66 69 74 75 78 78 78 81 84 87 89 90 91 93 96 99 100 99
59 54 58 69 71 61 65 64 64 68 70 73 75 75 70 63 74 71 73 73 70 69 71 71 71 73 76 76 74 74 75 76 79 82 85 90 93 96 98 100 100 100 102
52 52 53 58 67 61 64 67 68 67 68 69 70 65 71 72 74 70 73 73 67 66 67 67 66 64 65 68 72 75 78 81 85 90 94 96 95 96 97 100 103 105 107
41 53 54 55 59 52 48 63 64 68 68 68 70 71 66 61 60 61 62 58 54 54 57 61 63 69 73 74 76 81 86 90 92 93 94 95 97 100 103 106 109 112 114
30 47 54 57 55 55 40 48 55 55 52 55 48 49 51 51 51 52 55 56 58 59 61 66 72 75 79 83 86 86 86 89 92 95 98 101 104 107 110 113 114 111 109
34 26 34 38 55 52 46 58 47 45 49 49 50 50 53 56 58 60 63 66 67 69 72 75 78 81 82 83 85 88 91 93 97 101 104 108 110 111 110 107 101 97 95
39 36 33 37 40 43 41 41 46 47 51 56 57 58 59 63 66 67 70 71 71 71 74 77 79 81 85 88 91 94 98 102 106 108 108 106 102 97 95 94 91 89 87
38 40 42 40 43 45 46 50 54 55 57 60 62 64 65 66 67 68 71 72 73 76 79 83 85 88 91 94 98 103 106 105 101 96 92 90 89 88 86 84 82 79 75
42 42 45 48 50 52 53 54 56 60 62 64 66 68 69 70 70 72 74 77 79 82 85 88 92 95 98 100 102 98 92 85 83 83 83 82 81 79 76 73 69 65 59
49 51 52 51 51 54 57 58 60 63 65 67 68 68 70 72 75 77 80 83 86 90 93 95 97 95 91 85 79 78 78 78 77 77 76 74 70 68 65 60 53 47 41
53 54 53 54 53 54 56 57 59 62 64 68 71 73 75 78 81 84 87 90 92 91 88 81 76 73 72 73 74 73 72 72 72 70 67 64 60 56 49 42 36 31 26
49 51 53 54 56 59 60 63 66 69 72 75 78 81 83 86 87 87 85 81 75 70 67 67 68 69 69 69 67 66 66 64 61 59 57 53 48 41 34 27 23 20 17
Wind_Direction
257 265 270 262 262 274 277 276 264 263 257 258 256 271 277 275 277 273 280 271 267 269 271 271 268 270 268 271 275 278 282 284 287 287 286 288 281 267 281 286 282 284 286
255 264 271 263 262 262 261 266 270 270 268 269 270 276 273 274 278 280 284 281 281 281 280 274 273 266 268 272 280 279 283 282 287 284 283 288 284 281 283 284 286 287 285
255 264 268 267 263 261 267 270 270 268 266 270 273 271 268 273 276 282 282 281 282 282 282 281 278 270 267 270 274 278 279 280 281 285 288 289 287 287 291 290 288 287 287
255 262 264 263 261 264 267 276 279 277 271 271 269 269 269 271 274 279 281 281 279 280 284 280 279 280 274 270 277 278 279 279 280 282 284 285 286 286 287 288 290 292 291
258 264 264 263 262 261 266 275 275 278 271 264 269 273 276 277 280 280 278 277 276 278 278 281 281 278 276 276 276 279 282 282 282 283 284 285 286 288 292 294 294 292 290
256 263 263 259 266 266 274 272 270 274 273 269 272 278 282 282 277 273 274 273 273 274 277 279 278 279 283 278 277 279 276 281 281 284 286 288 287 291 293 293 292 291 290
263 265 265 263 265 268 274 277 268 272 270 271 273 277 285 283 279 281 281 279 275 274 276 276 276 277 277 278 279 280 280 280 280 283 285 285 283 292 293 290 295 293 291
260 264 264 265 266 270 271 275 271 269 272 272 275 278 282 282 283 280 277 276 277 279 277 275 274 274 274 275 276 278 280 281 286 285 287 273 281 290 290 288 292 292 293
256 258 260 261 263 268 269 271 271 272 270 273 273 275 277 277 278 277 277 275 274 274 275 276 276 277 276 276 277 279 281 281 274 284 282 284 287 289 290 290 291 291 291
256 256 259 261 262 264 265 262 267 269 270 275 273 275 275 277 276 275 274 277 279 279 280 279 279 279 281 281 281 281 281 282 284 284 281 280 286 287 288 290 290 291 295
251 251 253 257 262 259 260 264 269 268 267 266 268 270 272 270 270 271 272 275 277 279 280 281 281 281 281 281 281 280 279 280 283 286 280 279 285 288 288 291 293 293 292
245 249 253 254 257 256 259 260 258 260 265 266 271 270 269 273 274 272 271 276 274 276 276 278 281 281 280 278 277 280 277 273 278 282 281 283 286 290 291 291 291 292 293
239 242 247 250 249 251 254 253 256 261 263 266 269 272 275 275 274 284 272 275 278 283 279 279 279 280 279 276 269 269 271 280 281 283 286 288 287 288 289 291 291 292 292
243 241 241 244 245 249 250 252 255 257 261 262 264 266 271 273 275 276 277 285 281 286 281 279 280 285 273 258 267 275 282 284 286 287 286 286 287 288 288 289 290 291 292
250 248 245 245 245 248 247 248 250 255 259 259 262 266 272 277 275 278 281 281 279 279 282 279 278 279 277 277 281 282 284 284 283 282 282 284 286 287 289 290 291 292 292
253 253 252 249 245 249 259 259 257 260 260 263 264 270 269 268 272 269 275 279 278 281 279 278 274 275 278 280 282 282 282 282 283 284 286 289 290 291 291 291 292 292 293
249 251 253 254 252 248 257 258 259 264 268 270 270 271 270 264 267 274 276 279 277 275 276 277 278 278 278 281 283 284 285 285 285 288 291 292 291 291 292 293 292 293 294
245 252 261 256 257 261 246 256 258 258 261 264 261 261 267 269 269 272 275 272 274 276 278 276 274 279 281 284 286 287 288 288 289 290 291 291 292 293 293 294 295 295 295
229 240 249 251 255 245 252 255 252 259 261 263 262 260 262 266 272 274 276 278 280 280 278 275 277 281 284 286 289 290 291 292 293 293 293 294 294 295 296 295 295 295 295
258 245 244 238 241 252 260 263 265 266 266 263 265 267 269 271 277 282 285 287 286 284 284 284 285 287 288 289 291 292 292 293 293 294 294 295 296 297 296 296 296 296 296
270 261 263 259 256 258 265 271 270 268 267 268 271 274 277 281 283 287 288 288 288 287 288 289 290 291 291 292 293 294 294 295 295 296 297 297 297 297 297 297 297 296 296
274 270 272 280 278 277 279 279 280 280 279 279 281 283 284 286 288 288 288 288 289 290 291 291 292 292 293 294 294 295 296 297 297 297 297 297 298 298 298 298 299 299 298
274 279 280 280 285 287 287 286 285 284 285 286 286 287 288 288 287 288 288 289 290 290 291 292 293 294 295 295 295 297 297 297 297 298 299 299 300 301 301 301 301 301 301
282 283 284 285 284 282 282 283 283 283 283 284 285 285 285 286 288 289 289 290 291 292 293 293 294 295 296 297 296 297 299 300 300 301 301 302 302 303 303 304 305 305 304
280 280 281 281 282 282 282 284 284 284 284 284 284 285 286 287 289 291 291 291 292 293 295 297 297 297 298 299 300 301 301 302 302 303 304 304 306 307 307 307 308 307 307
282 283 284 284 284 284 284 284 284 285 286 287 287 289 290 290 292 293 294 295 296 296 298 298 299 300 300 300 301 302 302 303 304 304 307 309 310 310 309 308 308 310 312